Find Starlink 1446

NORAD ID: 45663 Int'l Des: 2020-035 Owner: SPXS Country: US Constellation: starlink operational
LEOCIRCULAR

Live Position

Loading 3D Globe...

About Starlink 1446

Description loading...

Upcoming Passes

Passes for default location (London). Set your location on the main map for personalized predictions.

Altitude History

Loading altitude history...

Two-Line Element Set

1 45663U 20035G 26126.34834345 .00030371 00000-0 62308-3 0 9991
2 45663 53.0229 84.9395 0004580 77.0778 283.0739 15.45796374328587
Epoch: May 6, 2026 • Age: 23 hours

Current Status

Altitude 445.0 km
Velocity 7.64 km/s
Sub-Earth Point -40.48°S, 31.38°W
Launch Date Jun 4, 2020
Age 5.9 years
Type internet

Technical Details

Classification Payload
Mass 260.00 kg
Dry Mass 248.00 kg
Total Mass 260.00 kg
Length 0.20 m
Diameter 2.80 m
Span 9.00 m
Shape Box + pan
Manufacturer SPXS
Bus Type Starlink
Phase Status In Orbit
Owner/State SPXS/US

Most Searched